#timestamp,LO_Frequency,Hit 
1501380015.6,286047009.6,N
1501380035.4,286047009.4,N
1501380055.3,286047011.9,N
1501380075.1,286047009.5,N
1501380095.8,286047012.1,N
1501380115.7,286047011.7,N
1501380135.5,286047010.0,N
1501380155.3,286047008.8,N
1501380175.2,286047008.4,N
1501380195.9,286047009.3,N
1501380215.7,286047011.7,N
1501380235.6,286047011.4,N
1501380255.4,286047014.0,N
1501380275.2,286047012.2,N
1501380295.1,286047009.8,N
1501380296.0,286047009.8,N
1501380315.8,286047010.6,N
1501380335.6,286047008.9,N
1501380355.4,286047009.7,N
1501380375.3,286047008.5,N
1501380395.1,286047010.5,N
1501380415.8,286047009.7,N
1501380435.7,286047012.2,N
1501380455.5,286047011.3,N
1501380475.3,286047018.1,N
1501380495.2,286047019.9,N
1501380515.9,286047018.5,N
1501380535.7,286047016.4,N
1501380555.6,286047014.1,N
1501380575.4,286047014.2,N
1501380595.2,286047014.4,N
1501380615.1,286047011.2,N
1501380616.0,286047011.2,N
1501380635.8,286047009.6,N
1501380655.6,286047007.7,N
1501380675.5,286047007.7,N
1501380695.3,286047009.4,N
1501380715.1,286047011.0,N
1501380735.8,286047009.4,N
1501380755.7,286047010.4,N
1501380775.5,286047007.7,N
1501380795.3,286047010.4,N
1501380815.2,286047006.7,N
1501380835.0,286047003.2,N
1501380835.9,286047003.2,N
1501380855.7,286047006.3,N
1501380875.6,286047009.1,N
1501380895.4,286047004.0,N
1501380915.2,286047004.0,N
1501380935.1,286047003.7,N
1501380936.0,286047003.7,N
1501380955.8,286047001.6,N
1501380975.6,286047003.8,N
1501380995.5,286047004.4,N
1501381015.3,286047004.2,N
1501381035.1,286047005.7,N
1501381055.9,286047004.7,N
1501381075.7,286047006.4,N
1501381095.5,286047007.0,N
1501381115.3,286047006.9,N
1501381135.2,286047009.0,N
1501381155.0,286047010.7,N
1501381155.9,286047010.7,N
1501381175.7,286047008.0,N
1501381195.6,286047010.7,N
1501381215.4,286047008.6,N
1501381235.2,286047008.8,N
1501381255.1,286047009.6,N
1501381256.0,286047009.6,N
1501381275.8,286047009.3,N
1501381295.6,286047012.3,N
1501381315.5,286047009.4,N
1501381335.3,286047011.2,N
1501381355.1,286047011.7,N
1501381375.9,286047011.2,N
1501381395.7,286047010.8,N
1501381415.5,286047011.3,N
1501381435.3,286047013.9,N
1501381455.2,286047013.8,N
1501381475.0,286047013.9,N
1501381475.9,286047013.9,N
1501381495.7,286047014.0,N
1501381515.6,286047011.1,N
1501381535.4,286047010.9,N
1501381555.2,286047011.9,N
1501381575.1,286047013.0,N
1501381576.0,286047013.0,N
1501381595.8,286047012.7,N
1501381615.6,286047015.4,N
1501381635.5,286047017.2,N
1501381655.3,286047014.5,N
1501381675.1,286047012.7,N
1501381695.9,286047011.3,N
1501381715.7,286047013.8,N
1501381735.5,286047014.4,N
1501381755.3,286047014.8,N
1501381775.2,286047013.4,N
1501381795.0,286047012.8,N
1501381795.9,286047012.8,N
1501381815.7,286047012.9,N
1501381835.6,286047015.6,N
1501381855.4,286047013.7,N
1501381875.2,286047012.5,N
1501381895.1,286047014.9,N
1501381896.0,286047014.9,N
1501381915.8,286047015.9,N
1501381935.6,286047016.9,N
1501381955.5,286047017.6,N
1501381975.3,286047019.9,N
1501381995.1,286047019.6,N
1501382015.9,286047020.4,N
1501382035.7,286047018.7,N
1501382055.5,286047018.2,N
1501382075.4,286047016.3,N
1501382095.2,286047018.7,N
1501382115.0,286047015.8,N
1501382115.9,286047015.8,N
1501382135.7,286047014.1,N
1501382155.6,286047016.1,N
1501382175.4,286047018.8,N
1501382195.2,286047021.9,N
1501382215.1,286047019.1,N
1501382216.0,286047019.1,N
1501382235.8,286047017.7,N
1501382255.6,286047018.2,N
1501382275.5,286047020.2,N
1501382295.3,286047018.7,N
1501382315.1,286047017.2,N
1501382335.9,286047015.3,N
1501382355.7,286047016.5,N
1501382375.5,286047020.0,N
1501382395.4,286047016.1,N
1501382415.2,286047018.7,N
1501382435.0,286047019.6,N
1501382435.9,286047019.6,N
1501382455.8,286047018.8,N
1501382475.6,286047017.2,N
1501382495.4,286047018.8,N
1501382515.2,286047019.8,N
1501382535.1,286047019.7,N
1501382536.0,286047019.7,N
1501382555.8,286047015.9,N
1501382575.6,286047015.3,N
1501382595.5,286047017.2,N
1501382615.3,286047012.9,N
1501382635.1,286047010.9,N
1501382655.9,286047011.5,N
1501382675.7,286047014.0,N
1501382695.5,286047013.9,N
1501382715.4,286047012.9,N
1501382735.2,286047010.9,N
1501382755.0,286047013.3,N
1501382755.9,286047013.3,N
1501382775.8,286047013.0,N
1501382795.6,286047012.7,N
1501382815.4,286047014.7,N
1501382835.2,286047012.7,N
1501382855.1,286047015.2,N
1501382856.0,286047015.2,N
1501382875.8,286047016.9,N
1501382895.6,286047014.2,N
1501382915.5,286047017.6,N
1501382935.3,286047019.0,N
1501382955.1,286047019.7,N
1501382975.9,286047019.0,N
1501382995.7,286047019.6,N
1501383015.5,286047018.9,N
1501383035.4,286047020.1,N
1501383055.2,286047018.4,N
1501383075.0,286047018.5,N
1501383075.9,286047018.5,N
1501383095.8,286047016.3,N
1501383115.6,286047016.4,N
1501383135.4,286047015.7,N
1501383155.2,286047014.4,N
1501383175.1,286047014.7,N
1501383176.0,286047014.7,N
1501383195.8,286047015.3,N
1501383215.6,286047013.0,N
1501383235.5,286047017.0,N
1501383255.3,286047018.7,N
1501383275.1,286047014.2,N
1501383295.9,286047015.6,N
1501383315.7,286047013.3,N
1501383335.5,286047016.9,N
1501383355.4,286047017.0,N
1501383375.2,286047015.0,N
1501383395.0,286047014.7,N
1501383395.9,286047014.7,N
1501383415.8,286047014.6,N
1501383435.6,286047015.4,N
1501383455.4,286047016.8,N
1501383475.2,286047016.1,N
1501383495.1,286047018.0,N
1501383496.0,286047018.0,N
1501383515.8,286047018.5,N
1501383535.6,286047021.3,N
1501383555.5,286047021.9,N
1501383575.3,286047021.9,N
1501383595.1,286047020.1,N
